DW9005 Weather Reports


time (UTC)temp
F
wind
direction
speed
knots
gust
knots
rain 1hr
in
rain 24hr
in
rain mn
in
humidity
%
barometer
mb
20260831074559 74 0.0 0.0 0.00 0.00 0.00 94 1017.9
20260831073059 74 0.0 0.0 0.00 0.00 0.00 94 1018.0
20260831071539 74 0.0 0.0 0.00 0.00 0.00 94 1018.1
20260831070046 74 0.0 0.0 0.00 0.00 0.00 94 1018.0
20260831064521 74 0.0 0.0 0.00 0.00 0.00 94 1018.1
20260831063020 74 0.0 0.0 0.00 0.00 0.00 94 1018.1
20260831061503 74 0.0 0.0 0.00 0.00 0.00 94 1018.2
20260831060003 74 0.0 0.0 0.00 0.00 0.00 94 1018.2
20260831054546 74 0.0 0.0 0.00 0.00 0.00 94 1018.2
20260831053058 75 0.0 0.0 0.00 0.00 0.00 94 1018.2
20260831051534 75 0.0 0.0 0.00 0.00 0.00 93 1018.3
20260831050025 75 0.0 0.0 0.00 0.00 0.00 93 1018.4
20260831044509 75 0.0 0.0 0.00 0.00 0.00 93 1018.3
20260831043008 75 0.0 0.0 0.00 0.00 0.00 93 1018.4
20260831041550 76 0.0 0.0 0.00 0.00 0.00 93 1018.4
20260831040050 76 0.0 0.0 0.00 0.00 0.00 93 1018.3
20260831034531 76 0.0 0.0 0.00 0.00 0.00 92 1018.5
20260831033055 76 0.0 0.0 0.00 0.00 0.00 92 1018.4
20260831031515 77 0.0 0.0 0.00 0.00 0.00 92 1018.5
20260831030012 77 0.0 0.0 0.00 0.00 0.00 92 1018.2
20260831024600 77 0.0 0.0 0.00 0.00 0.00 91 1018.2
20260831023058 77 0.0 0.0 0.00 0.00 0.00 90 1018.3
20260831021558 78 0.0 0.0 0.00 0.00 0.00 90 1018.3
20260831020110 78 0.0 0.0 0.00 0.00 0.00 89 1018.0
20260831014556 78 0.0 0.0 0.00 0.00 0.00 88 1017.9
20260831013100 79 0.0 0.0 0.00 0.00 0.00 87 1017.7
20260831011556 80 0.0 0.0 0.00 0.00 0.00 85 1017.6
20260831010055 80 0.0 0.0 0.00 0.00 0.00 84 1017.5
20260831004538 81 0.0 0.0 0.00 0.00 0.00 82 1017.5
20260831003039 82 0.0 0.0 0.00 0.00 0.00 80 1017.5
20260831001519 84 0.0 0.0 0.00 0.00 0.00 77 1017.3
20260831000020 86 0.0 0.0 0.00 0.00 0.00 74 1017.3
20260830234600 87 0.0 0.0 0.00 0.00 0.00 69 1017.2
20260830233100 88 0.0 0.0 0.00 0.00 0.00 66 1017.3
20260830231542 90 0.0 0.0 0.00 0.00 0.00 62 1017.2
20260830230041 90 0.0 0.0 0.00 0.00 0.00 64 1017.1
20260830224524 90 0.0 0.0 0.00 0.00 0.00 62 1017.0
20260830223023 90 0.0 0.0 0.00 0.00 0.00 61 1017.0
20260830221507 90 0.0 0.0 0.00 0.00 0.00 61 1017.0
20260830220004 89 0.0 0.0 0.00 0.00 0.00 63 1017.1
20260830214547 90 0.0 0.0 0.00 0.00 0.00 63 1017.2
20260830213045 90 0.0 0.0 0.00 0.00 0.00 62 1017.3
20260830211525 90 0.0 0.0 0.00 0.00 0.00 62 1017.3
20260830210024 87 0.0 0.0 0.00 0.00 0.00 67 1017.4
20260830204505 88 0.0 0.0 0.00 0.00 0.00 69 1017.8
20260830203003 89 0.0 0.0 0.00 0.00 0.00 65 1017.8
20260830201545 88 0.0 0.0 0.00 0.00 0.00 67 1017.8
20260830200043 89 0.0 0.0 0.00 0.00 0.00 64 1018.1
20260830194525 89 0.0 0.0 0.00 0.00 0.00 63 1018.1
20260830193023 88 0.0 0.0 0.00 0.00 0.00 68 1018.4
20260830191510 89 0.0 0.0 0.00 0.00 0.00 64 1018.4
20260830190002 88 0.0 0.0 0.00 0.00 0.00 66 1018.6
20260830184544 88 0.0 0.0 0.00 0.00 0.00 65 1018.9
20260830183043 88 0.0 0.0 0.00 0.00 0.00 71 1019.0
20260830181530 87 0.0 0.0 0.00 0.00 0.00 69 1019.4
20260830180030 87 0.0 0.0 0.00 0.00 0.00 70 1019.5
20260830174529 87 0.0 0.0 0.00 0.00 0.00 70 1019.5
20260830173024 86 0.0 0.0 0.00 0.00 0.00 72 1019.7
20260830171523 86 0.0 0.0 0.00 0.00 0.00 75 1020.0
20260830170037 86 0.0 0.0 0.00 0.00 0.00 73 1020.2
20260830164520 85 0.0 0.0 0.00 0.00 0.00 73 1020.4
20260830163018 85 0.0 0.0 0.00 0.00 0.00 76 1020.6
20260830161516 84 0.0 0.0 0.00 0.00 0.00 78 1020.8
20260830160106 84 0.0 0.0 0.00 0.00 0.00 77 1020.9
20260830154556 83 0.0 0.0 0.00 0.00 0.00 79 1020.9
20260830153041 83 0.0 0.0 0.00 0.00 0.00 80 1020.8
20260830151534 82 0.0 0.0 0.00 0.00 0.00 83 1020.8
20260830150018 81 0.0 0.0 0.00 0.00 0.00 86 1020.7
20260830144514 81 0.0 0.0 0.00 0.00 0.00 87 1020.8
20260830143154 80 0.0 0.0 0.00 0.00 0.00 88 1020.9
20260830141552 80 0.0 0.0 0.00 0.00 0.00 89 1021.0
20260830140038 79 0.0 0.0 0.00 0.00 0.00 91 1021.0
20260830134536 77 0.0 0.0 0.00 0.00 0.00 93 1021.0
20260830133034 76 0.0 0.0 0.00 0.00 0.00 94 1021.0
20260830131527 75 0.0 0.0 0.00 0.00 0.00 95 1020.8
20260830130024 74 0.0 0.0 0.00 0.00 0.00 95 1020.6
20260830124533 73 0.0 0.0 0.00 0.00 0.00 95 1020.6
20260830123022 73 0.0 0.0 0.00 0.00 0.00 95 1020.3
20260830121521 72 0.0 0.0 0.00 0.00 0.00 95 1020.3
20260830120002 72 0.0 0.0 0.00 0.00 0.00 95 1020.3
20260830114502 72 0.0 0.0 0.00 0.00 0.00 95 1020.1
20260830113042 72 0.0 0.0 0.00 0.00 0.00 95 1020.0
20260830111541 72 0.0 0.0 0.00 0.00 0.00 95 1019.7
20260830110029 72 0.0 0.0 0.00 0.00 0.00 95 1019.7
20260830104527 72 0.0 0.0 0.00 0.00 0.00 95 1019.5
20260830103031 72 0.0 0.0 0.00 0.00 0.00 95 1019.4
20260830101523 72 0.0 0.0 0.00 0.00 0.00 95 1019.1
20260830100021 73 0.0 0.0 0.00 0.00 0.00 95 1019.1
20260830094520 73 0.0 0.0 0.00 0.00 0.00 95 1018.9
20260830093031 73 0.0 0.0 0.00 0.00 0.00 95 1018.9
20260830091518 73 0.0 0.0 0.00 0.00 0.00 95 1018.9
20260830084558 73 0.0 0.0 0.00 0.00 0.00 94 1018.8
20260830083041 74 0.0 0.0 0.00 0.00 0.00 94 1018.6
20260830081543 74 0.0 0.0 0.00 0.00 0.00 94 1018.6
20260830080020 74 0.0 0.0 0.00 0.00 0.00 94 1018.5